www.pogodaiklimat.ru

Погода и климат >> Архив погоды >> Россия >> Краснодарский край >> Туапсе


АРХИВ ПОГОДЫ в Туапсе

Время (UTC), дата Ветер
(напр.,м/с)
 
Видим.   Явления Облачность Т
(С)
Тd
(С)
f
(%)
Тe
(С)
Тes
(С)
Комфортность P
(гПа)
Po
(гПа)
Тmin
(С)
Tmax
(С)
R
(мм)
R24
(мм)
S
(см)
12 17.01 Ю 2 20 км 4/3 1000 м
[Cu Sc Ci sp]
+9.1 -1.3 48 +8 +9 тепло 1016.7 1009.2
15 17.01 С 1 10 км 3/3 1000 м
[Cu Sc]
+5.2 -1.1 64 +4 +4 по сезону 1018.9 1011.3 +9.8
18 17.01 С 2 10 км 3/3 1000 м
[Sc]
+2.4 -1.4 76 -1 -1 по сезону 1020.8 1013.1
21 17.01 СВ 2 10 км 3/3 1000 м
[Sc Ci sp]
+0.8 -3.2 75 -2 -2 по сезону 1022.3 1014.5
00 18.01 СВ 2 10 км 8/8 1000 м
[Cu Sc]
+2.1 -2.8 70 -1 -1 по сезону 1022.9 1015.2
03 18.01 В 2 10 км 8/6 1000 м
[Sc Ac cast]
+4.1 -2.4 63 +2 +2 по сезону 1022.8 1015.1 +0.6
06 18.01 ЮВ 4 20 км {ливн. осадки} 8/6 600 м
[Cb cap Ac trans]
+6.1 -3.2 51 +3 +3 по сезону 1023.5 1015.9
09 18.01 ЮВ 5
{10}
20 км 9/8 1000 м
[Cu Sc Ac trans]
+7.1 -1.3 55 +4 +4 по сезону 1024.0 1016.4
12 18.01 ЮВ 5-10
{11}
20 км 8/4 1000 м
[Cu med, cong Ac trans Ci fib]
+7.5 +0.2 60 +4 +4 по сезону 1023.1 1015.5
15 18.01 Ю 4
{10}
10 км 9/8 1000 м
[Sc Ac trans Ci fib]
+7.3 +0.7 63 +4 +4 по сезону 1023.0 1015.4 +8.0 0.0
18 18.01 ЮВ 4
{10}
10 км 9/8 1000 м
[Sc Ac trans Ci fib]
+6.5 -1.5 57 +3 +3 по сезону 1023.0 1015.4
21 18.01 ЮВ 3 10 км 3/3 1000 м
[Sc]
+5.8 -1.5 59 +3 +3 по сезону 1022.7 1015.1
00 19.01 ЮВ 4 10 км 10/3 1000 м
[Sc Ac trans Ci fib]
+6.3 +0.4 66 +3 +3 по сезону 1021.9 1014.3
03 19.01 ЮВ 2 10 км 3/3 1000 м
[Sc]
+5.5 +0.1 68 +3 +3 по сезону 1021.3 1013.7 +5.5
06 19.01 ЮВ 3 20 км 9/3 1000 м
[Cu Sc Ci fib]
+6.7 -0.1 62 +4 +4 тепло 1021.4 1013.8 +5.2
09 19.01 ЮВ 4 20 км 10/4 1000 м
[Cu Sc Ci]
+8.1 +1.2 62 +5 +7 тепло 1022.1 1014.5
12 19.01 ЮВ 5
{10}
20 км 10/6 1000 м
[Cu Sc Ci]
+8.0 +1.4 63 +5 +5 по сезону 1021.4 1013.8
15 19.01 Ю 4
{10}
10 км 10/8 1000 м
[Cu Sc Ci]
+8.0 +2.2 67 +5 +5 по сезону 1022.1 1014.5 +8.4
18 19.01 ЮВ 5
{10}
20 км 10/6 1000 м
[Cu Sc Ci]
+7.6 +1.4 65 +4 +4 по сезону 1022.1 1014.5
21 19.01 ЮВ 5-12
{12}
10 км 10/8 1000 м
[Sc Ci]
+8.1 +0.1 57 +5 +5 тепло 1022.6 1015.0
00 20.01 ЮВ 6-12
{12}
10 км {ливн. осадки} 10/10 600 м
[Cb cap]
+6.8 -0.1 61 +3 +3 по сезону 1023.4 1015.8
03 20.01 ЮВ 4
{12}
4000 м слаб. ливневой дождь 10/10 600 м
[Cb cap]
+6.1 +0.3 66 +3 +3 по сезону 1023.4 1015.8 +6.1
06 20.01 ЮВ 4
{11}
10 км слаб. ливневой дождь 10/10 600 м
[Cb cap]
+6.3 +1.2 70 +3 +3 по сезону 1024.2 1016.6
09 20.01 ЮВ 5-11
{11}
20 км 10/8 1000 м
[Cb cap Ci sp]
+7.4 +1.9 68 +4 +4 по сезону 1024.3 1016.7
12 20.01 ЮВ 5-10
{11}
20 км {ливн. осадки} 9/8 1000 м
[Cb cap Ci sp]
+8.3 +1.7 63 +5 +5 по сезону 1023.5 1015.9
15 20.01 ЮВ 3 10 км 10/10 1000 м
[Cb cap]
+8.5 +1.7 62 +6 +6 тепло 1023.1 1015.5 +8.6 0.6
18 20.01 В 2 10 км 8/5 1000 м
[Sc Ci fib]
+7.0 +2.3 72 +5 +5 тепло 1022.5 1014.9
21 20.01 СВ 1 10 км 6/0
[Ci fib]
+6.3 +0.5 66 +6 +6 тепло 1022.2 1014.6
00 21.01 В 1 10 км 6/0
[Ci sp]
+7.0 -0.7 58 +6 +6 тепло 1021.2 1013.6
03 21.01 В 3 10 км 6/0
[Ci fib]
+7.3 -2.2 51 +5 +5 тепло 1019.6 1012.0 +5.2
06 21.01 ЮВ 5 20 км 3/0
[Ci fib]
+9.1 -1.3 48 +6 +7 тепло 1019.2 1011.7
09 21.01 ЮВ 6-10
{12}
20 км 9/0
[Ac trans Ci fib]
+10.0 +1.8 57 +7 +8 тепло 1018.6 1011.1
12 21.01 ЮВ 5
{11}
20 км 9/0
[Ac trans Ci fib]
+10.0 +3.6 64 +7 +8 тепло 1016.8 1009.3
15 21.01 ЮВ 7-11
{11}
10 км 10/6 1000 м
[Cb cap Ac trans Ci fib]
+9.8 +3.7 66 +6 +6 тепло 1016.4 1008.9 +10.8
18 21.01 ЮВ 5
{13}
10 км {ливн. осадки} 10/8 1000 м
[Cb cap Ac trans Ci fib]
+9.8 +4.6 70 +7 +7 тепло 1016.7 1009.2
21 21.01 ЮВ 5
{12}
4000 м слаб. ливневой дождь 10/10 600 м
[Cb cap]
+6.9 +3.1 77 +3 +3 по сезону 1017.8 1010.2
00 22.01 ЮВ 6-11
{11}
10 км в посл. час ливневой дождь 10/10 600 м
[Cb cap]
+6.3 +3.0 79 +2 +2 по сезону 1017.5 1009.9
03 22.01 ЮВ 5
{13}
4000 м слаб. ливневой дождь 10/10 600 м
[Cb cap]
+5.7 +3.0 83 +1 +1 по сезону 1017.4 1009.8 +5.7 8
06 22.01 В 4
{10}
10 км слаб. ливневой дождь 10/10 600 м
[Cb cap]
+5.9 +3.7 86 +2 +2 по сезону 1018.3 1010.7 +5.6
09 22.01 З 1 20 км {ливн. осадки} 10/8 600 м
[Cb cap Ac trans Ci sp]
+7.1 +3.9 80 +6 +7 тепло 1019.6 1012.0
12 22.01 ЮЗ 2 20 км {ливн. осадки} 10/8 1000 м
[Cb cap Ac trans Ci sp]
+6.9 +2.9 76 +5 +5 по сезону 1019.5 1011.9
15 22.01 СВ 1 10 км {ливн. осадки} 10/6 1000 м
[Cb cap Ac trans Ci sp]
+4.8 +0.6 74 +4 +4 по сезону 1020.6 1013.0 +7.4 8
18 22.01 СВ 1 10 км {ливн. осадки} 10/8 600 м
[Cb cap Ac trans Ci sp]
+3.3 +0.2 80 +2 +2 по сезону 1020.9 1013.2
21 22.01 В 1 10 км 10/4 1000 м
[Cb cap Ac trans Ci sp]
+4.9 +1.4 78 +4 +4 тепло 1020.5 1012.9
00 23.01 Ю 2 10 км 10/5 600 м
[Cb cap Ac trans Ci sp]
+6.4 +1.8 72 +4 +4 тепло 1019.5 1011.9
03 23.01 В 3 10 км 10/8 1000 м
[Cb cap Ac trans Ci sp]
+6.7 +1.4 69 +4 +4 тепло 1018.2 1010.6 +3.0 0.0
06 23.01 СВ 2 20 км {ливн. осадки} 10/8 1000 м
[Cb cap Ac trans Ci]
+7.0 +0.5 63 +5 +5 тепло 1018.0 1010.4
09 23.01 ЮВ 4 20 км 8/6 1000 м
[Cu Sc Ac trans Ci fib]
+9.3 +0.1 53 +7 +8 тепло 1017.6 1010.1
12 23.01 ЮВ 3 20 км 6/3 1000 м
[Sc Ci fib]
+10.0 +2.3 59 +8 +9 тепло 1015.4 1007.9
15 23.01 ЮВ 6-10
{10}
10 км 8/6 1000 м
[Sc Ci fib]
+11.1 +2.3 55 +8 +8 тепло 1014.5 1007.1 +11.2 0.0
18 23.01 ЮВ 6-12
{12}
10 км 3/0
[Ci fib]
+11.1 +3.3 59 +8 +8 тепло 1014.4 1007.0
21 23.01 ЮВ 5-12
{12}
10 км 9/6 1000 м
[Cb cap Ci fib]
+11.6 +3.4 57 +9 +9 тепло 1014.2 1006.8
00 24.01 ЮВ 5
{12}
10 км 9/4 1000 м
[Sc Ci fib]
+11.4 +2.8 55 +9 +9 тепло 1013.3 1005.9
03 24.01 ЮВ 4 10 км 6/3 1000 м
[Sc Ci fib]
+10.7 +3.5 61 +8 +8 тепло 1012.7 1005.3 +10.5
06 24.01 ЮВ 3 20 км 4/0
[Ci fib]
+11.1 -0.5 45 +10 +10 тепло 1012.8 1005.4 +10.1
09 24.01 ЮВ 4 20 км 10/3 1000 м
[Sc Ci sp]
+11.6 +3.0 56 +10 +11 тепло 1012.0 1004.6

 

Местоположение метеостанции Туапсе (Краснодарский край, Россия): широта 44.10 долгота 39.07 высота над уровнем моря 62 м.

В архиве по умолчанию представлена погода в Туапсе за последнюю неделю. Архивные данные за месяц целиком и за предыдущие месяцы, начиная с января 2011 года, Вы можете получить, выбрав интересующий диапазон дат из раскрывающегося списка и нажав кнопку "Ввод!".


*Определитесь, кто Вы:
робот инопланетянин человек

Внимание! Время в таблицах - всемирное. Для получения местного времени необходимо прибавить поправку, которая равна 3 ч.

Смотрите также архив погоды в соседних городах и на ближайших метеорологических станциях:

Погода в Магри (Краснодарский край, Россия) (11 км)
Погода в Горном (Краснодарский край, Россия) (26 км)
Погода в Лазаревском (Краснодарский край, Россия) (30 км)
Погода в Джубге (Краснодарский край, Россия) (38 км)
Погода в Кичмае (Краснодарский край, Россия) (46 км)
Погода в Солох Ауле (Краснодарский край, Россия) (56 км)
Погода в Горячем Ключе (Краснодарский край, Россия) (59 км)
Погода в Сочи (Краснодарский край, Россия) (81 км)
Погода в Гузерипле (Адыгея, Россия) (85 км)
Погода в Шунтуке (Адыгея, Россия) (93 км)

Пояснения к столбцам:

Ветер - указаны скорость ветра в м/с - средняя за 10 мин, порывы в срок и между сроками (в фигурных скобках) и направление, откуда дует ветер: С - северный, СВ - северо-восточный, В - восточный, ЮВ - юго-восточный, Ю - южный, ЮЗ - юго-западный, З - западный, СЗ - северо-западный.
Видимость - горизонтальная дальность видимости в метрах или километрах. При видимости от 1 до 10 км при отсутствии осадков обычно наблюдается дымка, при ухудшении видимости до 1 км и менее - туман. В сухую погоду видимость может ухудшаться дымом, пылью или мглою.
Явления - указаны атмосферные явления, наблюдавшиеся в срок или в последний час перед сроком; фигурными скобками обозначены явления, наблюдавшиеся между сроками (за 1-3 часа до срока); квадратными скобками обозначены град или гололедные отложения с указанием их диаметра в мм.
Облачность - указаны через наклонную черту общая и нижняя облачность в баллах и высота нижней границы облаков в метрах; квадратными скобками обозначены формы облаков: Ci - перистые, Cs - перисто-слоистые, Cc - перисто-кучевые, Ac - высококучевые, As - высокослоистые, Sc - слоисто-кучевые, Ns - слоисто-дождевые, Cu - кучевые, Cb - кучево-дождевые. Подробнее классификацию облаков см. в Атласе облаков (PDF).
T - Температура воздуха - температура, измеренная на высоте 2 м над землей.
Td - Температура точки росы - температура, при понижении до которой содержащийся в воздухе водяной пар достигнет насыщения.
f - Относительная влажность воздуха - влажноcть воздуха, измеренная на высоте 2 м над землей.
Te - Эффективная температура - температура, которую ощущает одетый по сезону человек в тени. Характеристика душности погоды. При расчете учитывается влияние влажности воздуха и скорости ветра на теплоощущения человека.
Tes - Эффективная температура на солнце - температура, которую ощущает человек, с поправкой на солнечный нагрев. Характеристика знойности погоды. Зависит от высоты солнца над горизонтом, облачности и скорости ветра. Ночью, в пасмурную погоду, а также при ветре 12 м/с и более поправка равна нулю.
P - Атмосферное давление - приведенное к уровню моря атмосферное давление.
Po - Атмосферное давление - измеренное на уровне метеостанции атмосферное давление.
Tmin - Минимальная температура - минимум температуры воздуха на высоте 2 м над землей.
Tmax - Максимальная температура - максимум температуры воздуха на высоте 2 м над землей.
R - Количество осадков - Количество выпавших осадков за период времени, мм. При наведении курсора мыши на число - период времени, за который выпало указанное количество осадков.
R24 - Количество осадков - Количество выпавших осадков за 24 часа, мм.
S - Снежный покров - Высота снежного покрова, см. При наведении курсора мыши на число - состояние снежного покрова и степень покрытия местности в баллах.